Regional Weather Roundup
Issued by NWS

Home | Current Version | Previous Version | Graphics & Text | Print | Product List | Glossary On
Versions: 1 2 3 4 5 6 7 8 9 10 11 12 13 14 15 16 17 18 19 20 21 22 23 24 25 26 27 28 29 30 31 32 33 34 35 36 37 38 39 40 41 42 43 44 45 46 47 48 49 50
000
ASUS43 KOAX 230510
RWRNE

WEATHER ROUNDUP FOR NEBRASKA
NATIONAL WEATHER SERVICE OMAHA NE
1200 AM CDT SAT MAY 23 2015

NOTES: SATELLITE DATA IS BEING USED TO AUGMENT CLOUD COVER ABOVE
       12000 FEET.
       "FAIR" INDICATES FEW OR NO CLOUDS BELOW 12,000 FEET WITH NO
       SIGNIFICANT WEATHER AND/OR OBSTRUCTIONS TO VISIBILITY.

  * THESE STATIONS DO NOT REPORT WEATHER SUCH AS RAIN...SNOW OR FOG.

NEZ001>004-019>022-054>056-230600-
NEBRASKA PANHANDLE

CITY           SKY/WX    TMP DP  RH WIND       PRES   REMARKS
SCOTTSBLUFF    CLOUDY    46  45  96 SE12      30.07F
ALLIANCE       CLOUDY    45  43  93 SE10      30.08S
CHADRON        CLOUDY    49  43  80 S9        30.09S
KIMBALL          N/A    N/A N/A N/A MISG        N/A
SIDNEY         CLOUDY    45  45 100 E8        30.08F FOG
$$

NEZ057>060-069>072-079>082-230600-
SOUTHWEST NEBRASKA

CITY           SKY/WX    TMP DP  RH WIND       PRES   REMARKS
NORTH PLATTE   CLOUDY    50  48  93 E13       30.09F FOG
IMPERIAL       CLOUDY    50  49  96 SE13      30.06F FOG
LEXINGTON      CLOUDY    53  52  97 SE10      30.11F FOG
MCCOOK         CLOUDY    52  52 100 SE10      30.08S FOG
OGALLALA       DRIZZLE   48  48 100 E7        30.08S
$$

NEZ005>010-023>029-035>040-094-230600-
NORTH CENTRAL NEBRASKA

CITY           SKY/WX    TMP DP  RH WIND       PRES   REMARKS
VALENTINE      CLOUDY    48  44  86 E6        30.14F
AINSWORTH      CLOUDY    48  47  97 SE8       30.14F
BROKEN BOW     CLOUDY    50  49  96 SE8       30.12F FOG
O`NEILL        DRIZZLE   51  50  97 SE6       30.17F
ORD            CLOUDY    50  49  96 SE6       30.14F FOG
THEDFORD       LGT RAIN  48  47  97 E8        30.12F
$$

NEZ041-046>049-061>064-073>077-083>087-230600-
SOUTH CENTRAL NEBRASKA

CITY           SKY/WX    TMP DP  RH WIND       PRES   REMARKS
GRAND ISLAND   CLOUDY    54  50  86 S9        30.16F
AURORA         CLOUDY    55  47  75 SE9       30.16S
HASTINGS       CLOUDY    54  51  90 SE10      30.14F
HEBRON         CLOUDY    56  48  74 SE5       30.16F
HOLDREGE       CLOUDY    53  51  95 SE20      30.11F FOG
KEARNEY *      CLOUDY    54  50  87 SE14      30.14S
YORK           CLOUDY    55  46  71 S8        30.17S
$$

NEZ011>018-030>034-042>045-230600-
NORTHEAST NEBRASKA

CITY           SKY/WX    TMP DP  RH WIND       PRES   REMARKS
NORFOLK        CLOUDY    54  51  90 E5        30.17S
ALBION         CLOUDY    54  46  75 E5        30.17S
BLAIR          CLOUDY    59  47  64 SE7       30.19F
COLUMBUS *     CLOUDY    57  45  62 SE8       30.20F
FREMONT        CLOUDY    61  46  57 SE7       30.19S
TEKAMAH        CLOUDY    58  50  75 SE6       30.19S
WAYNE          LGT RAIN  55  50  85 SE6       30.19S
$$

NEZ050>053-065>068-078-088>093-230600-
SOUTHEAST NEBRASKA

CITY           SKY/WX    TMP DP  RH WIND       PRES   REMARKS
LINCOLN        CLOUDY    60  44  55 SE13      30.18F
OMAHA EPPLEY   CLOUDY    60  49  66 S8        30.20S
BEATRICE       CLOUDY    58  46  64 SE9       30.17F
FALLS CITY     MOCLDY    58  50  75 SE3       30.19F
NEBRASKA CITY  CLOUDY    58  46  63 SE8       30.19F
PLATTSMOUTH    CLOUDY    58  47  67 SE5       30.19F
$$

NEZ044-045-051>053-067-230600-
OMAHA AREA

CITY           SKY/WX    TMP DP  RH WIND       PRES   REMARKS
OMAHA EPPLEY   CLOUDY    60  49  66 S8        30.20S
BLAIR          CLOUDY    59  47  64 SE7       30.19F
FREMONT        CLOUDY    61  46  57 SE7       30.19S
MILLARD        CLOUDY    60  50  69 SE5       30.19F
OFFUTT AFB     CLOUDY    58  50  75 E3        30.18F
PLATTSMOUTH    CLOUDY    58  47  67 SE5       30.19F
WAHOO          CLOUDY    59  47  64 SE9       30.18F
$$



USA.gov is the U.S. government's official web portal to all federal, state and local government web resources and services.